Vertical_Velocity
2 -1 -2 5 -2 5 -3 2 -0 2 2 1 1 -2 1 -1 -0 -3 -0 1 6 -3 -4 3 -2 -3 13 5 -10 6 -4 3 1 1 -8 3 2 -5 3 -2 2 3 4 -2 1 2 1 -0 1
-0 0 -3 2 -1 -4 1 5 1 3 0 1 5 2 -0 -4 -4 -2 1 2 4 2 4 4 7 -8 -2 7 3 -3 1 -2 -4 -1 7 3 -4 -1 -4 7 -0 2 2 4 1 -1 2 -2 2
-3 -5 1 1 0 -6 -1 0 -0 -2 0 -0 2 -2 -3 -5 -1 -1 -1 -2 -3 1 -2 0 -2 6 -6 2 -1 -0 -4 1 -2 4 -2 -5 2 -1 3 0 2 1 2 4 3 2 -0 -2 1
-1 1 -4 0 -3 4 0 0 -5 -3 -4 -5 -1 -1 -1 -5 -6 -6 -1 1 -1 2 1 -2 2 3 -2 -1 -3 0 -5 -1 1 -4 1 2 -1 -0 1 -3 -2 -2 -1 3 -2 -6 -2 0 1
2 2 -7 -5 -2 -0 2 1 2 4 3 2 2 0 -6 -4 -5 -1 -0 3 -2 0 1 2 -1 0 -3 -1 -2 -2 -1 2 -3 4 1 -1 -4 -0 -1 -2 -1 -1 -1 0 -1 4 1 2 1
-11 -2 4 -2 1 2 1 2 6 3 2 -2 -2 -4 -6 -4 -5 -0 -2 -0 -3 -4 2 1 -1 -7 -2 2 1 1 3 -3 1 3 -1 -2 -0 -0 -2 -3 -2 -4 -2 -3 -2 2 -0 -0 -2
-2 -3 -1 3 1 -0 1 4 2 -4 -4 -1 2 -5 -2 1 -2 -5 0 -0 3 3 1 1 -2 4 2 2 3 0 -0 -1 -1 -4 -2 -0 -0 -1 2 3 2 1 -1 -2 -1 2 -1 -2 -3
-2 2 -0 1 3 -2 -1 -1 -5 1 0 -2 0 0 2 4 -2 -5 -0 3 3 -0 1 2 2 -2 -1 0 1 -0 -0 0 -2 -3 -1 0 0 -0 -1 -2 -0 2 2 2 3 3 3 1 1
-2 -6 -3 -3 -5 -7 -4 1 2 -2 -3 -1 -6 -4 -5 -4 -0 2 3 3 7 3 3 -1 -0 1 -3 -3 -4 -3 -4 0 -2 -2 -2 -2 1 1 -1 0 2 3 2 0 -0 -1 0 1 1
2 -4 -5 -0 0 7 -1 -5 0 1 -1 1 1 -3 -1 1 3 -1 -1 4 2 -2 3 2 -3 1 -3 -1 -3 -0 -0 -1 -1 -2 -2 -2 0 0 -1 -1 -1 0 1 1 1 1 0 -2 -2
-4 -5 1 -0 -3 -2 1 2 4 2 2 -2 -2 1 -2 6 -2 -1 4 -0 -2 -1 -0 -1 -1 1 -3 -2 -2 -2 -2 1 1 -1 -1 -1 -3 -2 -0 -2 -2 -3 -2 -2 -2 -2 -2 -1 -1
1 -1 -2 3 0 -4 2 2 2 1 -1 3 0 5 0 -4 -4 5 0 -3 -7 -3 -1 -2 0 -1 1 -0 -1 1 -0 2 1 1 -1 0 -2 -2 -0 -0 -2 -2 -2 -3 -2 -2 -3 -2 -2
-5 -0 -0 -2 -0 0 1 4 -1 -2 3 1 6 -1 -1 0 2 -4 -7 -1 -0 -1 0 -2 -4 -5 -4 -4 -3 -0 1 1 -1 1 2 -1 0 1 -1 -2 -1 -1 1 2 1 1 -1 -4 -3
2 1 -1 3 6 6 -5 -6 -1 5 0 2 -1 2 1 2 3 -2 -4 -2 1 1 0 -3 -0 -2 -2 -3 -3 -1 -3 -3 -4 -3 -2 -2 -0 0 1 1 2 1 -0 -0 0 1 4 3 1
-1 -5 -1 -4 3 -3 -1 -1 2 -1 -5 -4 2 2 1 2 -1 4 2 1 2 4 1 2 3 1 2 0 1 -2 -3 -1 -1 -0 -1 -1 -1 -2 -3 -2 -1 -2 -2 -2 -0 0 -0 -0 2
-1 -1 -1 4 -2 0 -3 2 4 2 2 5 1 0 -2 1 3 -1 1 0 0 0 1 4 2 0 -1 -1 -0 -2 -3 -4 -5 -5 -5 -5 -3 -2 -2 -2 -2 -4 -4 -4 -3 -4 -2 0 0
-2 -2 1 -1 -1 -1 -0 -3 4 1 -3 1 -2 2 0 0 1 -2 2 3 2 1 1 4 3 3 -1 -3 -2 -3 -2 -3 -3 -2 -2 -0 3 3 2 1 1 -3 -3 -2 -0 -1 -1 -3 -3
1 0 3 2 -2 0 1 -2 -1 -5 -2 -0 1 2 4 2 2 -3 1 1 -1 1 2 1 2 1 -1 -3 -2 1 2 2 -0 1 -1 -1 -2 -3 -3 1 3 2 -0 0 1 1 1 1 2
-3 -0 -0 0 -1 -3 0 -2 3 -0 3 5 -0 3 3 6 7 6 4 1 1 -2 0 -1 0 1 2 -2 -5 -2 -4 -4 0 1 0 -1 0 3 -1 2 5 6 1 -0 -2 -0 1 1 2
-0 -1 -3 -2 1 -3 0 2 -0 2 1 -1 -0 -2 1 1 4 4 3 2 0 -4 -1 3 4 2 -3 -10 -4 -1 -1 -0 -3 -4 -7 -2 2 -1 -4 -8 -11 -6 -2 1 -0 -4 -7 -3 -3
-2 -1 0 -1 -2 -2 1 1 1 -0 -1 -2 -3 -2 -2 2 2 0 0 -2 -0 -3 -3 -3 -6 -4 -3 -6 2 5 6 5 3 2 5 0 -1 3 1 -0 -2 -0 -0 -1 3 2 1 -3 -1
-1 -0 0 0 -0 -2 -1 -2 -2 -0 1 0 -0 0 4 -1 -4 -2 -2 -4 -5 -3 -6 -3 1 -2 3 4 2 -2 -5 -6 -7 -9 -5 -4 -2 -2 -3 2 4 4 4 -0 3 9 -3 -1 -2
-2 0 0 0 2 -0 -1 1 2 1 -2 0 -0 1 -1 -1 3 -2 1 -1 -4 6 8 6 3 1 2 1 -1 -3 -4 -2 1 7 3 8 5 3 6 5 4 3 3 3 5 8 13 9 4
-1 5 0 1 1 -2 -0 -1 -1 -2 3 -3 -3 4 3 3 2 1 2 3 10 9 1 -1 1 -1 -0 -1 1 3 1 0 -6 -6 -7 -1 1 2 2 -0 -3 -0 1 2 4 4 -1 3 1
0 -2 -2 -5 -5 -6 -0 -0 3 1 -2 -3 4 3 2 1 3 4 4 6 3 -8 -4 -0 -1 2 3 3 -2 -1 -4 -8 -5 1 -2 -5 -7 -5 -4 1 -2 -2 -2 1 3 6 9 -0 3
-5 -5 -2 -3 -2 -4 1 -2 9 -1 3 7 3 -2 -1 -3 -5 -3 0 -1 -5 2 3 -1 0 -2 -3 -0 -1 5 7 4 4 -2 -4 -4 -5 -6 -4 -3 0 -2 -2 -2 -0 -2 1 4 15
-2 -3 -2 -2 -0 -1 1 4 4 -4 1 1 -1 -6 -3 -1 3 3 0 0 8 0 -4 3 3 1 0 4 5 7 -0 3 -5 -3 -0 -4 -2 -4 2 -7 0 1 -1 -5 2 29 27 16 22
-1 -1 -1 -2 -4 -2 -4 -0 -0 9 -4 -5 -3 -4 -4 -1 -2 -2 5 7 -0 0 2 4 4 6 4 3 -4 -6 -3 0 1 -0 1 -4 -2 2 4 2 1 7 1 1 -5 1 12 8 -7
1 -1 -2 -1 2 -2 -1 -9 1 6 7 2 -2 2 3 4 2 3 6 5 3 3 2 1 -4 -3 3 3 -1 -5 1 0 -5 -4 -2 -1 -4 -0 2 0 -4 5 3 8 1 3 3 6 4
0 -1 0 -3 -2 -2 3 -31 3 -2 -1 -7 -2 2 3 1 -3 -3 -2 -2 1 2 2 1 2 -3 0 1 -2 -6 -3 -7 -5 -8 -2 -8 -3 -2 -5 4 10 3 4 1 -1 2 1 -3 -1
Height
3142 3141 3144 3146 3151 3150 3153 3155 3156 3158 3159 3160 3161 3162 3163 3162 3163 3166 3163 3163 3164 3164 3167 3166 3167 3167 3169 3168 3173 3172 3175 3174 3174 3174 3170 3171 3170 3168 3167 3167 3165 3164 3164 3164 3165 3164 3161 3162 3161
3142 3144 3146 3147 3150 3149 3154 3156 3157 3158 3159 3161 3162 3163 3163 3163 3162 3163 3164 3165 3164 3165 3168 3169 3169 3169 3171 3170 3171 3172 3173 3174 3173 3173 3171 3169 3168 3167 3167 3165 3163 3163 3162 3161 3161 3159 3158 3158 3158
3142 3145 3149 3149 3149 3150 3154 3156 3158 3158 3160 3161 3162 3162 3163 3164 3164 3164 3164 3166 3166 3169 3169 3170 3170 3170 3171 3171 3170 3170 3171 3172 3170 3169 3169 3167 3165 3164 3164 3161 3160 3160 3160 3158 3157 3156 3156 3155 3155
3144 3147 3150 3150 3151 3153 3154 3156 3158 3160 3160 3160 3161 3164 3163 3164 3164 3166 3167 3168 3168 3168 3169 3170 3171 3171 3172 3171 3169 3170 3169 3169 3168 3168 3166 3164 3162 3162 3160 3158 3158 3157 3156 3155 3153 3152 3152 3152 3150
3145 3147 3149 3151 3154 3156 3157 3158 3160 3160 3161 3161 3162 3161 3163 3164 3165 3166 3167 3168 3169 3169 3170 3169 3171 3170 3171 3171 3169 3168 3167 3165 3165 3164 3162 3162 3160 3159 3158 3156 3156 3154 3153 3151 3151 3150 3148 3148 3147
3146 3149 3151 3151 3155 3157 3159 3161 3162 3163 3162 3162 3162 3163 3164 3164 3165 3166 3169 3168 3168 3171 3170 3169 3168 3169 3169 3167 3166 3165 3163 3161 3161 3159 3158 3157 3156 3155 3154 3154 3154 3152 3151 3149 3148 3147 3147 3146 3145
3146 3149 3153 3154 3157 3157 3160 3161 3160 3161 3163 3162 3162 3160 3165 3164 3165 3167 3169 3166 3169 3168 3170 3168 3167 3167 3166 3165 3164 3162 3160 3160 3158 3157 3156 3156 3155 3154 3153 3152 3151 3150 3149 3148 3148 3147 3146 3144 3143
3147 3149 3152 3157 3158 3159 3161 3162 3160 3160 3163 3161 3161 3161 3161 3164 3163 3166 3167 3167 3168 3167 3167 3167 3167 3166 3165 3164 3163 3160 3160 3159 3157 3156 3156 3156 3154 3154 3152 3151 3151 3149 3147 3146 3146 3145 3144 3143 3142
3148 3150 3153 3157 3157 3160 3161 3162 3162 3161 3162 3162 3161 3160 3162 3162 3164 3163 3165 3166 3166 3166 3165 3165 3165 3164 3163 3162 3161 3159 3158 3158 3156 3156 3155 3154 3153 3151 3150 3149 3148 3146 3145 3144 3143 3142 3141 3140 3138
3149 3151 3155 3158 3160 3160 3159 3162 3162 3162 3159 3162 3162 3159 3160 3158 3160 3161 3162 3163 3164 3165 3165 3164 3163 3162 3160 3159 3158 3157 3157 3156 3155 3154 3153 3152 3150 3149 3148 3146 3145 3143 3142 3140 3139 3138 3137 3136 3135
3151 3155 3155 3156 3157 3159 3161 3163 3161 3161 3158 3159 3164 3159 3160 3159 3159 3160 3161 3161 3162 3163 3162 3161 3161 3161 3159 3157 3156 3155 3154 3153 3152 3151 3150 3148 3147 3145 3144 3142 3140 3139 3137 3135 3134 3133 3132 3131 3130
3153 3155 3155 3157 3159 3158 3159 3160 3159 3160 3160 3159 3161 3158 3159 3159 3159 3160 3159 3159 3160 3160 3160 3160 3160 3159 3158 3156 3155 3153 3152 3150 3148 3147 3146 3144 3143 3141 3139 3138 3136 3134 3133 3131 3129 3127 3126 3125 3125
3158 3155 3158 3158 3159 3158 3157 3160 3161 3160 3159 3159 3159 3158 3158 3159 3158 3158 3157 3158 3158 3159 3159 3159 3159 3158 3157 3155 3152 3150 3148 3147 3145 3143 3141 3139 3137 3135 3133 3131 3129 3128 3126 3124 3122 3121 3120 3119 3118
3157 3156 3158 3158 3158 3157 3159 3161 3160 3159 3158 3159 3158 3158 3158 3158 3157 3157 3158 3158 3158 3157 3157 3157 3157 3156 3155 3153 3151 3148 3146 3144 3142 3139 3137 3134 3131 3129 3126 3123 3121 3120 3118 3117 3115 3114 3113 3113 3112
3158 3159 3157 3157 3154 3157 3158 3159 3158 3157 3156 3156 3156 3157 3157 3157 3157 3158 3158 3158 3157 3157 3156 3156 3156 3155 3153 3150 3148 3146 3143 3141 3138 3135 3132 3129 3126 3123 3121 3118 3115 3113 3111 3109 3109 3108 3107 3106 3105
3158 3157 3157 3156 3155 3157 3157 3156 3156 3155 3154 3154 3154 3155 3156 3156 3156 3157 3156 3157 3157 3156 3155 3155 3155 3154 3151 3148 3145 3143 3140 3137 3134 3131 3128 3124 3120 3117 3115 3113 3110 3107 3105 3103 3102 3101 3100 3098 3097
3158 3158 3157 3155 3155 3156 3155 3152 3152 3150 3150 3151 3152 3153 3154 3154 3155 3154 3155 3155 3154 3153 3153 3153 3152 3150 3148 3146 3143 3140 3137 3134 3130 3125 3121 3117 3114 3111 3109 3107 3105 3102 3100 3098 3096 3094 3092 3091 3090
3156 3155 3154 3154 3154 3153 3152 3150 3149 3147 3147 3149 3150 3151 3151 3152 3153 3152 3153 3153 3152 3151 3151 3150 3149 3147 3145 3142 3139 3136 3133 3130 3126 3122 3117 3112 3108 3105 3103 3101 3098 3096 3094 3093 3090 3087 3085 3084 3082
3155 3154 3153 3153 3152 3151 3149 3148 3146 3145 3146 3148 3149 3149 3149 3150 3152 3152 3151 3150 3149 3149 3148 3147 3146 3144 3142 3138 3135 3131 3127 3124 3122 3118 3114 3109 3105 3101 3097 3094 3091 3089 3085 3084 3082 3080 3079 3077 3074
3154 3154 3154 3152 3151 3149 3148 3148 3146 3145 3145 3146 3147 3147 3148 3149 3150 3149 3149 3148 3147 3146 3146 3145 3143 3141 3137 3133 3128 3124 3121 3118 3115 3112 3108 3104 3099 3094 3090 3087 3084 3082 3078 3075 3073 3071 3068 3067 3066
3154 3153 3152 3150 3148 3148 3147 3147 3146 3145 3144 3145 3146 3147 3147 3147 3147 3148 3147 3146 3144 3142 3142 3141 3139 3135 3130 3125 3120 3117 3114 3110 3107 3104 3099 3096 3091 3088 3083 3078 3074 3071 3068 3064 3063 3060 3056 3054 3053
3152 3150 3148 3147 3147 3147 3147 3147 3145 3144 3144 3144 3144 3145 3146 3145 3145 3144 3143 3141 3139 3137 3135 3133 3131 3128 3124 3120 3116 3111 3107 3103 3100 3096 3090 3086 3083 3077 3073 3068 3063 3058 3056 3052 3050 3049 3044 3043 3041
3152 3148 3145 3144 3144 3145 3147 3147 3146 3144 3143 3142 3143 3144 3144 3143 3142 3140 3138 3136 3134 3132 3130 3128 3125 3121 3118 3114 3109 3105 3101 3096 3090 3086 3080 3076 3071 3066 3061 3057 3052 3047 3043 3040 3038 3034 3032 3030 3028
3149 3146 3144 3144 3144 3145 3147 3148 3146 3143 3143 3141 3141 3142 3142 3140 3138 3137 3135 3133 3132 3129 3127 3123 3119 3115 3111 3108 3104 3098 3092 3086 3080 3076 3070 3064 3059 3054 3049 3043 3038 3032 3027 3025 3023 3020 3017 3016 3015
3150 3145 3145 3148 3148 3148 3146 3146 3144 3142 3142 3141 3141 3141 3139 3138 3136 3135 3133 3130 3126 3123 3120 3116 3112 3109 3104 3100 3096 3091 3084 3077 3070 3064 3057 3051 3045 3039 3033 3027 3020 3015 3011 3009 3008 3007 3005 3002 3001
3150 3149 3150 3154 3155 3147 3144 3142 3143 3140 3141 3140 3139 3137 3137 3135 3134 3132 3128 3125 3121 3117 3113 3109 3104 3101 3096 3091 3084 3078 3072 3065 3058 3052 3046 3039 3030 3023 3014 3011 3004 3000 2997 2995 2995 2994 2991 2988 2986
3152 3152 3153 3151 3151 3149 3143 3141 3142 3137 3137 3136 3135 3133 3131 3130 3128 3126 3123 3119 3114 3109 3106 3101 3097 3093 3086 3079 3073 3068 3063 3056 3049 3041 3033 3025 3018 3010 3003 2998 2995 2992 2989 2987 2987 2986 2983 2982 2977
3152 3154 3153 3152 3155 3153 3143 3139 3138 3137 3134 3132 3129 3128 3126 3125 3122 3120 3117 3112 3108 3104 3099 3094 3088 3081 3075 3069 3063 3057 3050 3043 3036 3028 3020 3012 3004 2997 2992 2989 2987 2985 2982 2978 2977 2975 2974 2972 2969
3153 3152 3152 3153 3152 3152 3150 3140 3137 3135 3133 3129 3127 3124 3122 3119 3116 3113 3110 3106 3101 3095 3090 3084 3077 3071 3065 3059 3053 3045 3038 3030 3023 3015 3006 2999 2993 2988 2984 2980 2978 2977 2974 2972 2969 2966 2963 2962 2961
3151 3151 3151 3151 3152 3151 3148 3135 3132 3131 3129 3126 3124 3121 3118 3114 3111 3107 3103 3097 3092 3086 3079 3072 3066 3061 3055 3049 3043 3036 3028 3018 3010 3001 2994 2987 2983 2980 2976 2974 2971 2968 2966 2964 2961 2959 2956 2953 2951